Location: Atwood Lookout Tower
(37.4253°N, 89.3343°W)
Time: 01:59:14
(UTC+00:00)

Daily predictions for brighter satellites

Satellite Brightness Start Highest point End
(mag) Time Altitude Azimuth Time Altitude Azimuth Time Altitude Azimuth
Cosmos 1939 Rocket 2.6 00:01:19 10° SSE 00:05:09 73° ENE 00:09:03 10° N
Cosmos 2366 rocket 4.0 00:02:00 10° N 00:08:12 87° W 00:14:20 10° S
USA 81 4.3 00:03:14 10° N 00:08:31 71° W 00:13:44 10° S
H-2A R/B 3.1 00:10:51 25° NE 00:10:51 25° NE 00:13:53 10° NNE
CREW DRAGON DEMO-1 DEB 3.1 00:09:02 10° NW 00:11:58 62° SW 00:12:54 37° SSE
Cosmos 44 3.7 00:08:52 10° NNW 00:14:14 77° WSW 00:19:38 10° SSE
YAOGAN 1 4.3 00:22:50 19° N 00:22:50 19° N 00:24:08 10° N
NOSS 3-2 (A) 3.3 00:19:11 10° SSW 00:24:29 54° ESE 00:26:19 39° ENE
Cosmos 158 Rocket 4.0 00:21:10 10° S 00:25:59 49° ESE 00:26:33 47° E
SL-16 R/B 4.1 00:21:55 10° WSW 00:26:38 27° WNW 00:31:21 10° N
Cosmos 1470 Rocket 4.0 00:25:57 10° NNW 00:30:13 59° W 00:34:26 10° S
Cosmos 2228 Rocket 3.0 00:26:51 10° S 00:31:23 69° E 00:32:19 52° NE
BREEZE-M DEB (TANK) 1.9 00:27:34 10° WSW 00:31:24 80° SW 00:31:24 80° SW
Cosmos 1515 Rocket 4.4 00:28:48 10° SSW 00:33:02 49° W 00:37:18 10° N
Cosmos 1680 Rocket 3.7 00:30:41 10° S 00:35:23 48° ESE 00:35:23 48° ESE
Cosmos 1812 3.0 00:32:56 10° S 00:35:56 53° S 00:35:56 53° S
USA 215 3.7 00:34:27 23° NNE 00:38:27 54° NW 00:44:46 10° WSW
COSMO-SKYMED 1 3.9 00:35:18 10° N 00:39:19 38° WNW 00:43:19 10° SW
USA 238 DEB 3.5 00:35:25 10° SSW 00:41:51 66° ESE 00:43:43 47° ENE
USA 238 3.5 00:35:31 10° SSW 00:41:57 66° ESE 00:43:47 47° ENE
MOS 1 Rocket 3.6 00:40:37 18° N 00:44:45 85° WNW 00:50:06 10° SSW
CZ-2D R/B 4.2 00:42:28 10° S 00:46:08 46° W 00:49:49 10° NNW
Meteor 2-6 Rocket 4.2 00:40:57 10° SSW 00:46:36 79° W 00:50:37 19° N
Cosmos 2263 4.3 00:43:46 10° NNW 00:48:30 54° NNE 00:48:30 54° NNE
Nadezhda 3 Rocket 4.1 00:46:29 10° S 00:52:49 77° W 00:59:14 10° N
X-37B 3.3 00:52:47 10° WNW 00:53:55 17° WNW 00:53:55 17° WNW
Okean-O 3.1 00:53:48 10° S 00:58:08 58° W 01:02:31 10° NNW
FALCON 9 R/B 3.7 00:58:11 10° WSW 00:58:37 14° WSW 00:58:37 14° WSW
USA 267 3.6 01:09:12 48° NNE 01:09:12 48° NNE 01:14:40 10° NW
Cosmos 1821 Rocket 4.2 01:02:50 10° NNW 01:09:02 68° W 01:15:19 10° S
USA 281 3.4 01:10:03 10° SSE 01:16:33 67° WSW 01:23:06 10° NNW
CZ-2C R/B 4.2 01:12:38 10° SSW 01:17:26 40° W 01:22:04 10° NNW
Cosmos 1943 4.5 01:22:50 10° SW 01:28:00 36° WNW 01:29:18 32° NNW
Cosmos 2369 Rocket 3.4 01:30:01 10° NW 01:35:11 38° WSW 01:37:02 30° SW
CZ-4 R/B4.501:40:23NW01:40:23NW01:33:45SW
H-2A R/B 4.2 01:44:02 10° SSW 01:51:28 21° NW 01:53:27 10° NNW
CENTAUR R/B 3.5 01:43:47 10° SW 01:47:09 37° WSW 01:47:09 37° WSW
CENTAUR R/B 3.9 09:23:19 47° NE 09:23:59 48° NE 09:32:28 10° ESE
Atlas Centaur 2 4.0 09:34:28 29° SE 09:34:28 29° SE 09:38:02 10° ESE
ATLAS 2AS CENTAUR R/B 3.4 09:38:11 56° SE 09:38:52 58° ESE 09:46:36 10° NE
Cosmos 2263 Rocket 4.5 09:48:26 15° NNE 09:48:26 15° NNE 09:49:22 10° NNE
NOSS 3-2 (A) 4.1 09:51:00 77° SSE 09:51:00 77° SSE 09:58:55 10° SSE
Lacrosse 4 Rocket 3.6 10:03:38 24° ENE 10:03:38 24° ENE 10:06:32 10° ESE
FENGYUN 3A 4.4 10:02:03 10° NNE 10:07:18 49° E 10:12:29 10° S
USA 238 DEB 3.8 10:08:24 76° SSW 10:08:24 76° SSW 10:15:32 10° SSE
USA 238 3.8 10:08:27 77° SSW 10:08:27 77° SSW 10:15:38 10° SSE
Cosmos 1461 4.4 10:18:00 38° ESE 10:18:00 38° ESE 10:20:49 10° SE
Cosmos 1709 Rocket 4.0 10:11:18 10° S 10:17:39 80° E 10:24:02 10° N
Meteor 2-3 Rocket 4.3 10:12:19 10° S 10:17:50 55° E 10:23:28 10° NNE
Cosmos 1603 3.8 10:18:18 72° ESE 10:18:18 72° ESE 10:23:32 10° SSE
Cosmos 1943 3.2 10:23:32 72° NNE 10:23:57 76° ENE 10:29:38 10° SSE
CZ-4C R/B 2.1 10:26:54 68° SE 10:26:59 68° ESE 10:32:27 10° NE
ALOS 4.4 10:26:05 10° NNE 10:36:19 - S 10:27:10 17° NNE
GPS 2-04 Rocket1 4.0 10:33:14 39° ESE 10:33:14 39° ESE 10:35:48 10° E
OAO 1 Rocket 4.4 10:37:30 67° SSW 10:37:44 68° S 10:43:00 10° E
ERS-2 3.2 10:34:31 10° SE 10:37:36 43° E 10:37:36 43° E
Cosmos 1933 4.2 10:41:12 43° SSE 10:41:12 43° SSE 10:44:00 10° S
Cosmos 1782 4.3 10:39:15 17° NNE 10:41:50 35° ENE 10:45:32 10° SE
ATLAS 3B R/B 3.8 10:39:41 16° NNW 10:44:53 40° NE 10:51:36 10° ESE
Cosmos 1151 Rocket 3.1 10:44:42 56° NNE 10:45:27 71° E 10:49:44 10° SSE
METEOR-M 4.0 10:41:17 10° NNE 10:46:39 90° WSW 10:51:59 10° SSW
SJ-12 4.5 10:46:52 10° NNE 10:50:53 57° E 10:54:51 10° S
Cosmos 158 Rocket 4.1 10:50:04 27° N 10:52:41 67° ENE 10:57:39 10° SSE
RESURS DK-1 2.4 10:51:31 43° S 10:52:47 78° ESE 10:56:57 10° NNE
ATLAS CENTAUR R/B 3.5 10:56:53 13° N 10:59:04 20° NE 11:02:00 10° E
Cosmos 1844 Rocket 2.9 10:56:21 10° SSW 11:01:57 74° ESE 11:07:37 10° NNE
Meteor 1-4 Rocket 2.5 11:03:45 63° S 11:03:45 63° S 11:06:43 10° S
Cosmos 2184 Rocket 4.3 10:59:18 10° S 11:05:32 69° E 11:11:52 10° NNE
Cosmos 1680 Rocket 3.8 11:01:32 14° NNW 11:06:05 70° ENE 11:11:22 10° SSE
Cosmos 1328 Rocket 3.4 11:04:11 30° NNW 11:06:19 76° W 11:10:44 10° S
Meteor 2-17 Rocket 4.3 11:00:51 10° SSW 11:06:53 76° W 11:12:57 10° N
CRYOSAT 2 4.3 11:02:03 10° S 11:06:55 89° W 11:11:48 10° N
Lacrosse 5 2.8 11:09:02 30° NNW 11:09:02 30° NNW 11:13:11 10° NNE
NOSS 3-4 (A) 4.2 11:10:47 28° NW 11:10:47 28° NW 11:16:04 10° NNE
SJ 16-02 3.5 11:14:10 13° N 11:14:10 13° N 11:14:44 10° N
NOSS 3-4 (C) 4.2 11:10:51 29° NW 11:10:52 29° NW 11:16:13 10° NNE
USA-17 4.4 11:11:07 37° SW 11:12:29 72° WNW 11:15:48 10° NNE
NOSS 3-2 (C) 4.5 11:10:07 29° WNW 11:13:53 45° WSW 11:22:00 10° S
COSMOS 2455 3.9 11:08:48 10° S 11:14:32 48° ESE 11:20:18 10° NE
CENTAUR R/B 3.6 11:10:33 27° WNW 11:14:51 46° WSW 11:23:09 10° S
OAO 2 Rocket 3.4 11:12:56 35° WSW 11:14:57 67° S 11:20:02 10° E
Cosmos 1844 3.8 11:11:02 10° SSW 11:16:34 78° ESE 11:22:08 10° NNE
ADEOS 3.9 11:14:42 10° N 11:19:32 39° WNW 11:24:20 10° SW
Atlas Centaur 2 3.1 11:17:04 19° WSW 11:21:18 43° S 11:26:22 10° ESE
Cosmos 1689 Rocket 2.2 11:21:25 10° SSE 11:24:15 70° ENE 11:26:00 21° N
USA 234 3.9 11:18:00 10° NE 11:24:27 58° SE 11:30:52 10° SSW
Cosmos 2112 Rocket 4.0 11:20:34 10° NNW 11:25:57 90° ENE 11:31:17 10° SSE
Cosmos 1743 Rocket 3.5 11:21:51 10° S 11:26:17 89° E 11:30:46 10° N
Aureole 2 Rocket 2.2 11:25:14 10° S 11:27:43 58° ESE 11:30:13 10° NNE
Cosmos 1408 Rocket 3.9 11:23:52 10° SSW 11:28:06 42° W 11:32:21 10° N
Cosmos 2263 Rocket 4.0 11:30:10 13° NNW 11:30:10 13° NNW 11:31:26 10° NNW
Meteor 2-6 Rocket 4.5 11:23:30 10° N 11:28:54 68° E 11:34:20 10° SSE
ATLAS 2AS CENTAUR R/B 3.6 11:25:45 21° W 11:30:14 35° NW 11:37:19 10° NNE
H-2A R/B 4.1 11:27:58 10° NNE 11:31:27 33° E 11:34:56 10° SSE
Cosmos 1898 Rocket 3.7 11:26:32 10° SW 11:31:39 49° WNW 11:36:50 10° N
COSMO-SKYMED 1 2.5 11:27:38 10° S 11:31:56 63° W 11:36:15 10° NNW
ATLAS 5 CENTAUR R/B 3.8 11:28:58 10° S 11:32:14 25° ESE 11:35:42 10° ENE
Milstar 3 Cent rocket 4.3 11:26:49 15° WSW 11:33:00 49° S 11:47:40 10° ESE
Gbstr 26 Del rocket 3.4 11:33:45 20° NNW 11:36:02 46° NE 11:39:55 10° ESE
SAR-Lupe-4 3.8 11:33:58 10° S 11:37:24 47° W 11:39:54 17° NNW
BREEZE-M DEB (TANK) 3.8 11:36:44 21° NNW 11:37:32 24° N 11:40:48 10° NE
Lacrosse 4 Rocket 2.5 11:39:58 23° WNW 11:41:30 28° WSW 11:45:17 10° SSW
Envisat 3.5 11:37:35 10° NNE 11:42:38 63° E 11:47:38 10° S
CZ-4B R/B 3.4 11:40:19 10° N 11:44:32 42° WNW 11:48:38 10° SW
Cosmos 1805 Rocket 3.9 11:41:02 10° S 11:45:25 69° E 11:49:52 10° NNE
Genesis I 4.3 11:44:54 22° WNW 11:45:49 24° NW 11:48:58 10° N
CZ-4B R/B 3.4 11:44:54 10° SW 11:45:32 12° WSW 11:45:32 12° WSW
Cosmos 1862 3.3 11:43:07 10° SSW 11:47:06 59° W 11:51:07 10° N
Cosmos 1937 Rocket 3.7 11:43:23 10° SW 11:48:18 47° WNW 11:53:19 10° N
YAOGAN 6 2.9 11:44:52 10° NNE 11:48:20 65° E 11:51:47 10° S
MOS 1 Rocket 3.5 11:45:48 10° SSE 11:50:31 79° ENE 11:55:34 10° N
Nadezhda 3 Rocket 4.1 11:45:14 10° N 11:51:33 82° E 11:57:45 10° S
